Location: Bittelbronn
(48.4454°N, 8.5870°E)
Time: 23:28:13
(UTC+00:00)

Meteor 2-5 Rocket - Pass Details

Date: 14 August 2024
Orbit: 833 x 910 km, 81.2° (Epoch: 07 September)

Event Time Altitude Azimuth Distance (km) Brightness Sun altitude
Rises 01:58:36 0° 348° (NNW) 3,468 7.5 -19.2°
Reaches altitude 10° 02:01:02 10° 348° (NNW) 2,537 6.7 -19.0°
Maximum altitude 02:06:50 89° 268° (W) 895 3.8 -18.3°
Enters shadow 02:12:05 13° 171° (S) 2,335 5.6 -17.8°
